Overview Statistics Trail Chart Weather Telemetry Raw packets
 

This is the latest recevied weather packets stored in our database for station/object OK1FET-4. If no packets are shown the sender has not sent any weather packets the latest 10 day(s).

<< 80 81 82 83 84 85 86 >>
Time Temp. Humidity Pressure Rain* Wind** Luminosity Snow
1788076588 22.78° C 57% 1016.7 hPa - - - -
1788076286 22.78° C 57% 1016.7 hPa - - - -
1788075985 22.78° C 58% 1016.7 hPa - - - -
1788075684 22.78° C 58% 1016.7 hPa - - - -
1788075382 22.22° C 60% 1016.6 hPa - - - -
1788075081 22.22° C 61% 1016.6 hPa - - - -
1788074780 21.67° C 62% 1016.6 hPa - - - -
1788074488 21.67° C 62% 1016.6 hPa - - - -
1788074178 21.67° C 62% 1016.6 hPa - - - -
1788073876 21.11° C 62% 1016.5 hPa - - - -
1788073575 21.11° C 64% 1016.6 hPa - - - -
1788073274 21.11° C 63% 1016.5 hPa - - - -
1788072973 21.67° C 61% 1016.6 hPa - - - -
1788072672 21.67° C 60% 1016.5 hPa - - - -
1788072370 21.67° C 71% 1016.6 hPa - - - -
1788072069 21.11° C 68% 1016.5 hPa - - - -
1788071768 20.56° C 73% 1016.5 hPa - - - -
1788071467 20° C 73% 1016.4 hPa - - - -
1788071166 19.44° C 73% 1016.4 hPa - - - -
1788070878 19.44° C 73% 1016.3 hPa - - - -
1788070564 18.89° C 75% 1016.4 hPa - - - -
1788070263 18.33° C 74% 1016.4 hPa - - - -
1788069962 18.33° C 75% 1016.4 hPa - - - -
1788069662 17.78° C 74% 1016.5 hPa - - - -
1788069361 17.78° C 74% 1016.4 hPa - - - -

* Rain since midnight (hover to see other rain measurements)
** Current wind speed in m/s (hover to see current wind gust speed)